User: anonymous   Login
Location: Unspecified
(0.0000°N, 0.0000°E)
Time: 04:38:26
(UTC+00:00)
Language:

ESSA 2 - Orbit

View from above orbital plane
View from above orbital plane
View from above satellite
View from above satellite

Ground track
Ground track

The orbit data is extracted from the following two-line orbital elements,

1  2091U 66016A   18020.28921218 -.00000023 +00000-0 +10027-3 0  9994
2  2091 101.1132 328.4808 0038944 013.1356 147.7891 12.69372754404105
Epoch (UTC): 20 January 2018 06:56:27
Eccentricity: 0.0038944
inclination: 101.1132°
perigee height: 1354 km
apogee height: 1415 km
right ascension of ascending node: 328.4808°
argument of perigee: 13.1356°
revolutions per day: 12.69372754
mean anomaly at epoch: 147.7891°
orbit number at epoch: 40410

The dashed part of the orbit path shows where the satellite is in the earth's shadow,  

DLR